Weather History for KCQF - March, 2013

Change the Weather History Date:

Sunday, March 3, 2013

  Actual Average (KBFM) Record (KBFM)
Temperature  
Mean Temperature 44 °F -  
Max Temperature 53 °F 64 °F 73 °F (1997)
Min Temperature 35 °F 46 °F 30 °F (2013)
Degree Days  
Heating Degree Days 21    
Moisture  
Dew Point 27 °F    
Average Humidity 58    
Maximum Humidity 93    
Minimum Humidity 30    
Precipitation  
Precipitation 0.00 in - - ()
Sea Level Pressure  
Sea Level Pressure 30.19 in    
Wind  
Wind Speed 8 mph (NW)    
Max Wind Speed 14 mph    
Max Gust Speed 21 mph    
Visibility 9 miles    
Events      
Averages and records for this station are not official NWS values.
T = Trace of Precipitation, MM = Missing Value Source: NWS Daily Summary

Daily Weather History Graph

Daily Weather History Graph

Search for Another Location

Airport or City:

Trip Planner

Search our weather history database for the weather conditions in past years. The results will help you decide how hot, cold, wet, or windy it might be!

Date:

Astronomy

Mar. 03, 2013 Rise Set
Actual Time 6:15 AM CST 5:51 PM CST
Civil Twilight 5:51 AM CST 6:16 PM CST
Nautical Twilight 5:23 AM CST 6:43 PM CST
Astronomical Twilight 4:55 AM CST 7:11 PM CST
Moon No Moon Rise 9:57 AM CST (3/3)
Length of Visible Light 12h 24m
Length of Day
11h 36m
Waning Gibbous, 63% of the Moon is Illuminated
Mar 3
Waning Gibbous
Mar 4
Last Quarter
Mar 11
New
Mar 19
First Quarter
Mar 27
Full

Hourly Weather History & Observations

Time (CST) Temp. Windchill Dew Point Humidity Pressure Visibility Wind Dir Wind Speed Gust Speed Precip Events Conditions
12:15 AM 39.2 °F 32.0 °F 23.0 °F 52% 30.20 in 10.0 mi NW 11.5 mph 18.4 mph N/A   Overcast
12:35 AM 39.2 °F 33.0 °F 24.8 °F 56% 30.19 in 10.0 mi NNW 9.2 mph - N/A   Overcast
1:15 AM 37.4 °F 30.3 °F 21.2 °F 52% 30.20 in 10.0 mi NNW 10.4 mph 16.1 mph N/A   Overcast
1:35 AM 37.4 °F 30.3 °F 23.0 °F 56% 30.20 in 10.0 mi NNW 10.4 mph - N/A   Overcast
1:55 AM 37.4 °F 30.8 °F 23.0 °F 56% 30.20 in 10.0 mi NW 9.2 mph - N/A   Overcast
2:15 AM 37.4 °F 30.8 °F 23.0 °F 56% 30.19 in 10.0 mi NNW 9.2 mph - N/A   Overcast
2:35 AM 37.4 °F 30.8 °F 23.0 °F 56% 30.19 in 10.0 mi NNW 9.2 mph - N/A   Overcast
2:55 AM 37.4 °F 30.8 °F 23.0 °F 56% 30.18 in 10.0 mi NNW 9.2 mph - N/A   Overcast
3:15 AM 37.4 °F 32.1 °F 23.0 °F 56% 30.18 in 10.0 mi NNW 6.9 mph - N/A   Overcast
3:55 AM 37.4 °F 32.1 °F 23.0 °F 56% 30.17 in 10.0 mi NNW 6.9 mph - N/A   Overcast
4:15 AM 35.6 °F 29.9 °F 23.0 °F 60% 30.17 in 10.0 mi NNW 6.9 mph - N/A   Scattered Clouds
4:35 AM 35.6 °F 30.7 °F 23.0 °F 60% 30.18 in 10.0 mi NNW 5.8 mph - N/A   Clear
5:15 AM 35.6 °F 30.7 °F 23.0 °F 60% 30.19 in 10.0 mi NNW 5.8 mph - N/A   Clear
5:35 AM 35.6 °F 30.7 °F 23.0 °F 60% 30.19 in 10.0 mi NNW 5.8 mph - N/A   Scattered Clouds
5:55 AM 35.6 °F 29.9 °F 24.8 °F 65% 30.20 in 10.0 mi NNW 6.9 mph - N/A   Scattered Clouds
6:15 AM 35.6 °F 29.9 °F 26.6 °F 70% 30.21 in 7.0 mi NNW 6.9 mph - N/A   Clear
6:55 AM 35.6 °F 28.6 °F 26.6 °F 70% 30.22 in 10.0 mi NNW 9.2 mph - N/A   Clear
7:15 AM 35.6 °F 28.6 °F 26.6 °F 70% 30.22 in 7.0 mi NNW 9.2 mph - N/A   Clear
7:35 AM 37.4 °F 28.9 °F 26.6 °F 65% 30.23 in 7.0 mi NNW 13.8 mph 17.3 mph N/A   Clear
7:55 AM 37.4 °F 29.8 °F 26.6 °F 65% 30.23 in 7.0 mi NW 11.5 mph 18.4 mph N/A   Clear
8:15 AM 37.4 °F 29.8 °F 26.6 °F 65% 30.24 in 10.0 mi NW 11.5 mph 17.3 mph N/A   Clear
8:35 AM 37.4 °F 29.8 °F 26.6 °F 65% 30.24 in 7.0 mi NW 11.5 mph 17.3 mph N/A   Clear
8:55 AM 37.4 °F 29.8 °F 26.6 °F 65% 30.24 in 10.0 mi NW 11.5 mph - N/A   Clear
9:15 AM 41.0 °F 34.3 °F 26.6 °F 57% 30.24 in 7.0 mi NW 11.5 mph 18.4 mph N/A   Clear
9:35 AM 41.0 °F 33.9 °F 26.6 °F 57% 30.24 in 7.0 mi NW 12.7 mph 17.3 mph N/A   Clear
9:55 AM 41.0 °F 34.7 °F 26.6 °F 57% 30.23 in 10.0 mi NW 10.4 mph 18.4 mph N/A   Scattered Clouds
10:15 AM 41.0 °F 33.5 °F 24.8 °F 53% 30.23 in 7.0 mi NW 13.8 mph 19.6 mph N/A   Clear
10:35 AM 41.0 °F 33.5 °F 26.6 °F 57% 30.23 in 7.0 mi NW 13.8 mph - N/A   Clear
10:55 AM 42.8 °F 35.8 °F 26.6 °F 53% 30.23 in 7.0 mi NW 13.8 mph 20.7 mph N/A   Clear
11:15 AM 42.8 °F 36.2 °F 24.8 °F 49% 30.22 in 10.0 mi NNW 12.7 mph 18.4 mph N/A   Clear
11:35 AM 44.6 °F 38.4 °F 23.0 °F 43% 30.21 in 10.0 mi NNW 12.7 mph 18.4 mph N/A   Clear
11:55 AM 44.6 °F 39.7 °F 23.0 °F 43% 30.21 in 10.0 mi NNW 9.2 mph 18.4 mph N/A   Clear
12:15 PM 46.4 °F 40.7 °F 23.0 °F 40% 30.20 in 10.0 mi NW 12.7 mph 17.3 mph N/A   Clear
12:35 PM 46.4 °F 41.9 °F 23.0 °F 40% 30.19 in 7.0 mi West 9.2 mph - N/A   Clear
12:55 PM 46.4 °F 41.9 °F 23.0 °F 40% 30.18 in 7.0 mi NNW 9.2 mph - N/A   Clear
1:15 PM 50.0 °F - 23.0 °F 35% 30.17 in 10.0 mi North 10.4 mph - N/A   Clear
1:35 PM 50.0 °F - 23.0 °F 35% 30.16 in 10.0 mi NW 10.4 mph - N/A   Clear
2:15 PM 50.0 °F - 21.2 °F 32% 30.15 in 10.0 mi WNW 10.4 mph - N/A   Clear
2:35 PM 51.8 °F - 23.0 °F 33% 30.14 in 10.0 mi NNW 9.2 mph - N/A   Clear
2:55 PM 51.8 °F - 21.2 °F 30% 30.14 in 7.0 mi NW 9.2 mph - N/A   Clear
3:15 PM 51.8 °F - 21.2 °F 30% 30.14 in 4.0 mi West 6.9 mph - N/A   Haze
3:35 PM 51.8 °F - 21.2 °F 30% 30.14 in 7.0 mi NW 4.6 mph - N/A   Clear
3:55 PM 53.6 °F - 23.0 °F 30% 30.14 in 7.0 mi NW 6.9 mph - N/A   Clear
4:15 PM 51.8 °F - 26.6 °F 38% 30.15 in 7.0 mi SW 6.9 mph - N/A   Clear
4:35 PM 50.0 °F - 28.4 °F 43% 30.15 in 10.0 mi SW 4.6 mph - N/A   Clear
5:15 PM 50.0 °F - 28.4 °F 43% 30.16 in 7.0 mi SSW 4.6 mph - N/A   Clear
5:35 PM 48.2 °F - 30.2 °F 50% 30.16 in 7.0 mi South 3.5 mph - N/A   Clear
5:55 PM 46.4 °F 44.3 °F 32.0 °F 57% 30.16 in 10.0 mi SSE 4.6 mph - N/A   Clear
6:15 PM 44.6 °F - 32.0 °F 61% 30.16 in 10.0 mi Calm Calm - N/A   Clear
6:35 PM 41.0 °F - 33.8 °F 76% 30.16 in 10.0 mi Calm Calm - N/A   Clear
7:15 PM 42.8 °F 40.1 °F 35.6 °F 76% 30.17 in 10.0 mi WSW 4.6 mph - N/A   Clear
7:35 PM 46.4 °F 45.2 °F 35.6 °F 66% 30.18 in 10.0 mi WSW 3.5 mph - N/A   Clear
7:55 PM 46.4 °F 43.5 °F 35.6 °F 66% 30.18 in 10.0 mi WSW 5.8 mph - N/A   Clear
8:15 PM 46.4 °F 45.2 °F 35.6 °F 66% 30.18 in 10.0 mi WSW 3.5 mph - N/A   Clear
8:35 PM 46.4 °F 44.3 °F 35.6 °F 66% 30.18 in 10.0 mi WSW 4.6 mph - N/A   Clear
8:55 PM 46.4 °F 45.2 °F 35.6 °F 66% 30.19 in 10.0 mi West 3.5 mph - N/A   Clear
9:15 PM 42.8 °F - 33.8 °F 70% 30.19 in 10.0 mi Calm Calm - N/A   Clear
9:35 PM 37.4 °F - 35.6 °F 93% 30.19 in 10.0 mi Calm Calm - N/A   Clear
9:55 PM 37.4 °F - 35.6 °F 93% 30.20 in 10.0 mi Calm Calm - N/A   Clear
10:15 PM 37.4 °F - 35.6 °F 93% 30.19 in 10.0 mi Calm Calm - N/A   Clear
10:35 PM 35.6 °F - 33.8 °F 93% 30.20 in 10.0 mi Calm Calm - N/A   Clear
10:55 PM 35.6 °F - 33.8 °F 93% 30.18 in 10.0 mi Calm Calm - N/A   Clear
11:15 PM 35.6 °F - 33.8 °F 93% 30.18 in 7.0 mi Calm Calm - N/A   Clear
11:35 PM 35.6 °F - 33.8 °F 93% 30.17 in 7.0 mi Calm Calm - N/A   Clear